This is the latest recevied weather packets stored in our database for station/object W6DSP. If no packets are shown the sender has not sent any weather packets the latest 10 day(s).
| Time | Temp. | Humidity | Pressure | Rain* | Wind** | Luminosity | Snow |
|---|---|---|---|---|---|---|---|
| 1777762657 | 11.11° C | 37% | 1018.7 hPa | 0 mm | - | - | - |
| 1777761934 | 11.11° C | 39% | 1018.6 hPa | 0 mm | - | - | - |
| 1777761243 | 11.67° C | 40% | 1018.6 hPa | 0 mm | - | - | - |
| 1777760539 | 11.11° C | 39% | 1018.5 hPa | 0 mm | - | - | - |
| 1777759797 | 11.67° C | 37% | 1018.6 hPa | 0 mm | - | - | - |
| 1777759054 | 11.67° C | 36% | 1018.6 hPa | 0 mm | - | - | - |
| 1777757630 | 11.67° C | 43% | 1018.5 hPa | 0 mm | - | - | - |
| 1777756881 | 11.11° C | 42% | 1018.5 hPa | 0 mm | - | - | - |
| 1777756136 | 10° C | 43% | 1018.5 hPa | 0 mm | - | - | - |
| 1777755409 | 10.56° C | 45% | 1018.6 hPa | 0 mm | - | - | - |
| 1777754702 | 10.56° C | 48% | 1018.8 hPa | 0 mm | - | - | - |
| 1777753975 | 11.67° C | 45% | 1018.7 hPa | 0 mm | - | - | - |
| 1777753278 | 10° C | 48% | 1019.1 hPa | 0 mm | - | - | - |
| 1777752544 | 11.11° C | 49% | 1019.2 hPa | 0 mm | - | - | - |
| 1777751809 | 11.11° C | 48% | 1019.3 hPa | 0 mm | - | - | - |
| 1777751067 | 11.11° C | 47% | 1019.3 hPa | 0 mm | - | - | - |
| 1777750316 | 10.56° C | 54% | 1019.5 hPa | 0 mm | - | - | - |
| 1777749597 | 10° C | 47% | 1019.6 hPa | 0 mm | - | - | - |
| 1777748892 | 10.56° C | 48% | 1019.6 hPa | 0 mm | - | - | - |
| 1777748177 | 9.44° C | 46% | 1019.7 hPa | 0 mm | - | - | - |
| 1777747444 | 8.89° C | 49% | 1019.7 hPa | 0 mm | - | - | - |
| 1777746750 | 9.44° C | 48% | 1019.8 hPa | 0 mm | - | - | - |
| 1777746000 | 10° C | 48% | 1020 hPa | 0 mm | - | - | - |
| 1777745259 | 8.89° C | 51% | 1020 hPa | 0 mm | - | - | - |
| 1777744511 | 8.89° C | 48% | 1020 hPa | 0 mm | - | - | - |
* Rain latest hour (hover to see other rain measurements)
** Current wind speed in m/s (hover to see current wind gust speed)